Regional Weather Roundup
Issued by NWS

Home | Current Version | Previous Version | Graphics & Text | Print | Product List | Glossary On
Versions: 1 2 3 4 5 6 7 8 9 10 11 12 13 14 15 16 17 18 19 20 21 22 23 24 25 26 27 28 29 30 31 32 33 34 35 36 37 38 39 40 41 42 43 44 45 46 47 48 49 50
000
ASUS45 KABQ 221910
RWRNM
NEW MEXICO REGIONAL WEATHER ROUNDUP
NATIONAL WEATHER SERVICE ALBUQUERQUE NM
100 PM MDT FRI SEP 22 2017

NOTE: "FAIR" MEANS FEW OR NO CLOUDS BELOW 12,000 FEET AGL WITH NO
       SIGNIFICANT WEATHER OR OBSTRUCTIONS TO VISION.

      THIS PRODUCT IS RELEASED AS TWO VERSIONS.  ONE VERSION NEAR
      THE TOP OF THE HOUR CONTAINING PRELIMINARY DATA FROM ALBUQUERQUE
      AND OTHER STATIONS.  A FINAL VERSION WITH ADDITIONAL DATA IS
      ISSUED ABOUT 10 MINUTES AFTER THE HOUR.

NMZ501-503-504-510>518-222000-
NORTHWEST PLATEAU/NORTHCENTRAL MOUNTAINS

CITY           SKY/WX    TMP DP  RH WIND       PRES   REMARKS
FARMINGTON     FAIR      76  37  24 SW17G25   29.89F
LOS ALAMOS     FAIR      72  32  23 S22G37    30.05F
SANTA FE       FAIR      80  34  19 S24G33    30.00F
TAOS           FAIR      73  33  23 SW28G35   30.05F
ANGEL FIRE     FAIR      64  32  29 SW17G30   30.13F

$$
NMZ402-403-502-505>509-222000-
WESTCENTRAL MOUNTAINS/SOUTHWEST MOUNTAINS

CITY           SKY/WX    TMP DP  RH WIND       PRES   REMARKS
GALLUP         FAIR      74  38  27 SW22G38   29.96F
GRANTS         FAIR      76  35  22 SW25G36   29.98F
SILVER CITY    FAIR      80  39  23 SW14G26   30.00F

$$
NMZ407-409-411-412-222000-
SOUTHERN DESERTS

CITY           SKY/WX    TMP DP  RH WIND       PRES   REMARKS
DEMING         FAIR      89  43  20 W16G26    29.92F
LAS CRUCES     FAIR      88  41  19 SW14G25   29.96F
HOLLOMAN AFB   FAIR      92  44  18 S14       29.92F
ALAMOGORDO     FAIR      90  41  18 SW17      29.93F
T OR C         FAIR      88  38  17 S28G38    29.91F

$$
NMZ519>523-222000-
CENTRAL VALLEYS/CENTRAL HIGHLANDS

CITY           SKY/WX    TMP DP  RH WIND       PRES   REMARKS
ALBUQUERQUE    PTSUNNY   81  36  19 S23G31    29.94F
DOUBLE EAGLE   PTSUNNY   79  39  24 S18G24    29.96F
MORIARTY ARPT  FAIR      82  36  19 S18G32    30.02F
CLINES CORNERS FAIR      76  34  21 SW22G43   30.07F
BELEN          FAIR      85  34  16 S21G29    29.93F
SOCORRO        FAIR      86  37  17 S18G31    29.90F

$$
NMZ524>526-539-540-222000-
SOUTHCENTRAL MOUNTAINS

CITY           SKY/WX    TMP DP  RH WIND       PRES   REMARKS
RUIDOSO        FAIR      77  36  22 SW15G31   30.12F

$$
NMZ527>531-222000-
NORTHEAST HIGHLANDS/NORTHEAST PLAINS

CITY           SKY/WX    TMP DP  RH WIND       PRES   REMARKS
LAS VEGAS      FAIR      74  35  24 SW25G35   30.05F
RATON          FAIR      78  37  22 S29G37    29.94F
CLAYTON        FAIR      86  43  22 SW25G40   29.93F

$$
NMZ532>537-222000-
EASTCENTRAL PLAINS

CITY           SKY/WX    TMP DP  RH WIND       PRES   REMARKS
SANTA ROSA     MOCLDY    87  37  16 SW13G26   29.91F
TUCUMCARI      FAIR      94  50  22 S18G24    29.87F
CANNON AFB     FAIR      87  61  41 S15       29.95F
CLOVIS AIRPORT FAIR      86  62  44 S17       29.95F

$$
NMZ028-029-538-222000-
SOUTHEAST PLAINS

CITY           SKY/WX    TMP DP  RH WIND       PRES   REMARKS
ROSWELL        FAIR      93  52  24 S14G23    29.88F
ARTESIA        FAIR      91  55  29 SE12      29.88F
CARLSBAD       FAIR      91  61  36 SE9       29.87F
HOBBS          SUNNY     88  61  40 SE16G24   29.92F


$$




USA.gov is the U.S. government's official web portal to all federal, state and local government web resources and services.